User: anonymous   Login
Location: Seattle
(47.6064°N, 122.3308°W)
Time: 10:17:50
(UTC-08:00)
Language:

A-11 Canister half - Orbit

View from above orbital plane
View from above orbital plane
View from above satellite
View from above satellite

Ground track
Ground track

The orbit data is extracted from the following two-line orbital elements,

1 00053U 60009E   20338.62712985 -.00000038  00000-0  45204-3 0  9999
2 00053  47.2765  97.2827 0099426 220.0902 139.2518 12.17249677689177
Epoch (UTC): 03 December 2020 15:03:04
Eccentricity: 0.0099426
inclination: 47.2765°
perigee height: 1525 km
apogee height: 1684 km
right ascension of ascending node: 97.2827°
argument of perigee: 220.0902°
revolutions per day: 12.17249677
mean anomaly at epoch: 139.2518°
orbit number at epoch: 68917

The dashed part of the orbit path shows where the satellite is in the earth's shadow,  

DLR